Weather in Apnery

Russia / Chuvash Republic     55°30′25″N   46°55′50″E
temp.,
°C
wind,
m/s
gust,
m/s
humid.,
%
clouds,
%
prec.,
mm/h
press.,
hPa
HPBL,
m
6 march, sat
sat600:00−9wsw51096100 0.0 1009233
03:00−11w499689 0.1 1011218
06:00−15wnw479477 0.0 1013115
09:00−13w349338 0.0 1015152
12:00−8w35830 0.0 1015493
15:00−7wsw46820 0.0 1013705
18:00−12wsw34920 0.0 101437
21:00−14wsw33969 0.0 101327
7 march, sun
sun700:00−15wsw239843 0.0 101220
03:00−14sw239760 0.1 101252
06:00−16sw349878 0.0 101152
09:00−12sw479475 0.1 1010261
12:00−8ssw598886 0.0 1007623
15:00−7ssw7118593 0.0 1003773
18:00−7ssw71394100 1.1 1000897
21:00−6s81593100 2.2 996948
8 march, mon
mon800:00−5ssw71595100 1.3 992868
03:00−8wsw71683100 2.3 993662
06:00−11wsw715850 0.0 994433
09:00−9sw7138916 0.0 995544
12:00−7sw7109368 0.4 995865
15:00−5w698383 0.8 9961060
18:00−9w488955 0.0 998141
21:00−12wsw499132 0.0 1001163
9 march, tue
tue900:00−14w479754 0.0 1002136
03:00−15wnw489775 0.1 1004175
06:00−18w469890 0.1 1007111
09:00−16wnw479693 0.1 1009276
12:00−13wnw579093 0.0 1011511
15:00−13wnw578996 0.1 1012581
18:00−17w4795100 0.0 1013126
21:00−19wnw369999 0.1 101595
10 march, wed
wed1000:00−20wnw369997 0.1 1015105
03:00−22wnw349996 0.1 101676
06:00−22nw3698100 0.1 1017164
09:00−22nw4797100 0.1 1018275
12:00−20nw4693100 0.0 1020412
15:00−19nw479199 0.1 1021521
18:00−22nw3497100 0.0 102267
21:00−24nw349996 0.0 102440